Lexington Weather

Lexington, Massachusetts, USA

78°F
8/3/2020 7:56am 
  • Lexington Conditions: Clear
  • Temperature: 77.5°F / 25.3°CWarmer 1.0°F than last hour.
  • Dew Point: 73.0°FDecreased 1.8°Fsince last hour.
  • Relative Humidity: 86%Decreased 9.0% since last hour.
  • Wind: Wind from S S 3 mph, 10-min avg: 3 mph, gust: 10 mph
  • Barometer: 29.85 in Steady
  • Visibility: 10 miles
  • Rain Today: 0.00 in
  •   
Southeast Middlesex County - Tropical Storm Watch - Tropical Cyclone Statement
 - SEE ALL NEARBY ALERTS -

Regional Weather Roundup
for Boston / Norton, MA

        
000
ASUS41 KBOX 301004
RWRBOX

REGIONAL WEATHER ROUNDUP
NATIONAL WEATHER SERVICE BOSTON/NORTON MA
600 AM EDT THU JUL 30 2020

NOTE:  "FAIR" INDICATES FEW OR NO CLOUDS BELOW 12,000 FEET WITH NO 
SIGNIFICANT WEATHER AND/OR OBSTRUCTIONS TO VISIBILITY.

MAZALL-301100-
EASTERN MASSACHUSETTS
  
CITY           SKY/WX    TMP DP  RH WIND       PRES   REMARKS
BOSTON         MOCLDY    74  65  73 SW7       29.85S                  
BEVERLY        MOCLDY    71  68  90 CALM      29.84R                  
LAWRENCE       MOCLDY    71  68  90 SW7       29.87R                  
BEDFORD        MOCLDY    71  65  81 W3        29.84S                  
BLUE HILL      NOT AVBL                                               
NORWOOD        MOCLDY    71  67  87 CALM      29.85R                  
MARSHFIELD     MOCLDY    73  73 100 CALM      29.85R                  
PLYMOUTH       MOCLDY    71  70  96 CALM      29.86S                  
TAUNTON        MOCLDY    72  69  90 CALM      29.85R FOG              
NEW BEDFORD    CLOUDY    74  73  97 S3        29.85S                  
$$

MAZALL-301100-
CAPE COD AND THE ISLANDS
  
CITY           SKY/WX    TMP DP  RH WIND       PRES   REMARKS
FALMOUTH       CLOUDY    73  73 100 SW6       29.87R FOG              
HYANNIS        PTCLDY    76  74  93 SW9       29.86R                  
CHATHAM        MOCLDY    75  73  93 SW7       29.87S FOG              
PROVINCETOWN   PTCLDY    73  72  96 S7        29.86R                  
NANTUCKET      FOG       73  72  96 SW3       29.89R VSB 1/4          
MARTHAS VNYRD  FOG       74  74 100 SW3       29.87S VSB 1/2          
$$
 
MAZALL-301100-
CENTRAL AND WESTERN MASSACHUSETTS
  
CITY           SKY/WX    TMP DP  RH WIND       PRES   REMARKS
WORCESTER      LGT RAIN  71  65  81 W9        29.89S                  
FITCHBURG      MOCLDY    72  63  73 W5        29.87R                  
ORANGE         MOCLDY    68  66  93 CALM      29.90R                  
SPRINGFIELD    CLOUDY    67  67 100 CALM      29.86S                  
WESTFIELD      CLOUDY    69  68  96 CALM      29.87R                  
NORTH ADAMS    CLOUDY    65  64  97 CALM      29.89F                  
PITTSFIELD     CLOUDY    65  64  97 CALM      29.90F FOG              
$$
 
RIZALL-301100-
RHODE ISLAND
  
CITY           SKY/WX    TMP DP  RH WIND       PRES   REMARKS
PROVIDENCE     MOCLDY    74  73  97 S6        29.86S                  
NEWPORT        FOG       75  73  93 CALM      29.86S VSB 1/4          
BLOCK ISLAND   PTCLDY    71  70  96 W8        29.87F                  
SMITHFIELD     MOCLDY    71  71 100 W3        29.88R                  
WESTERLY       FOG       74  72  93 W3        29.87S VSB<1/4          
$$
 
CTZALL-301100-
CONNECTICUT
  
CITY           SKY/WX    TMP DP  RH WIND       PRES   REMARKS
BRADLEY INTL   CLOUDY    71  66  84 CALM      29.86S                  
HARTFORD       CLOUDY    76  73  91 CALM      29.86R                  
BRIDGEPORT     PTCLDY    75  70  84 NW3       29.86S                  
DANBURY        PTCLDY    70  66  87 CALM      29.89S                  
GROTON         FOG       74  73  97 W3        29.86S VSB<1/4          
NEW HAVEN      MOCLDY    77  75  93 CALM      29.86F                  
CHESTER        NOT AVBL                                               
MERIDEN        MOCLDY    74  72  93 CALM      29.87R                  
WILLIMANTIC    CLOUDY    71  68  90 CALM      29.88R                  
OXFORD         MOCLDY    71  68  90 CALM      29.91R                  
$$

MEZ002-015-021-024-NHZ003-005-008-011-012-014-VTZ005-008-301100-
NORTHERN NEW ENGLAND
  
CITY           SKY/WX    TMP DP  RH WIND       PRES   REMARKS
PORTLAND ME    PTCLDY    71  63  75 W7        29.82R                  
BANGOR ME      MOCLDY    68  64  87 SW3       29.80F                  
CONCORD NH     CLEAR     66  64  93 NW3       29.86R                  
MANCHESTER NH  MOCLDY    72  67  84 CALM      29.84R                  
NASHUA NH      PTCLDY    69  69 100 CALM      29.86R                  
PORTSMOUTH NH  MOCLDY    70  65  84 SW5       29.82R                  
JAFFREY NH     MOCLDY    67  63  87 S6        29.92R                  
KEENE NH       LGT RAIN  65  65 100 CALM      29.89S                  
BURLINGTON VT  PTCLDY    68  63  84 S5        29.84R                  
MT. WASHINGTON FOG       50  50 100 W33         N/A  VSB 1/16         
$$

NYZ052-076-301100-
EASTERN NEW YORK
  
CITY           SKY/WX    TMP DP  RH WIND       PRES   REMARKS
ALBANY         CLOUDY    65  65 100 SE3       29.87S                  
NEW YORK CITY  MOCLDY    82  62  50 NW5       29.86R                  
$$
 
ANZALL-301100-
MARINE OBSERVATIONS
  
STATION/POSITION TIME  TEMP    WIND        PRES    VSBY  WAVE
                       AIR SEA DIR/SP/G                  HT/PER
                 (UTC) (F)     (DEG/KT/KT) (MB)    (MI)  (FT/S)
BOSTON BUOY      0850   72 73  190/  6/  8 1009.2          1/ 8
BUZZARDS BAY     0900          230/  7/  7 1012.1S
NANTUCKET SOUND  0940      76  220/  6/  8 1010.6F
MASS BAY-STELLWA 0904   71     250/ 10/ 10 1008.1S  1 7/8  2/ 6
ISLE OF SHOALS   0900   73     250/  7/  7 1009.4S
S OF BLOCK IS    0926      76                N/A           3/ 7
$$

......................KEY.........................
  SKY/WX - SKY CONDITION/PRESENT WEATHER
  TMP    - TEMPERATURE IN FAHRENHEIT
  DWPT   - DEWPOINT IN FAHRENHEIT
  RH     - RELATIVE HUMIDITY IN PERCENT
  WIND   - DIRECTION AND SPEED IN MPH
  PRES   - MEAN SEA LEVEL PRESSURE IN INCHES OF HG
  WCI    - WIND CHILL INDEX
  VSB    - VISIBILITY IN MILES
  HX     - HEAT INDEX
  TC     - TEMPERATURE IN CELSIUS
  VRB    - VARIABLE WIND DIRECTION
  N/A    - NOT AVAILABLE
  
      

Other recent Regional Weather Roundups

Mon Aug 3, 7:04am

Mon Aug 3, 6:04am

Mon Aug 3, 5:04am

Mon Aug 3, 4:04am

Mon Aug 3, 3:04am

Mon Aug 3, 2:04am

Mon Aug 3, 1:04am

Mon Aug 3, 12:05am

Sun Aug 2, 11:04pm

Sun Aug 2, 10:04pm

Sun Aug 2, 9:04pm

Sun Aug 2, 8:04pm

Sun Aug 2, 7:04pm

Sun Aug 2, 6:04pm

Sun Aug 2, 5:04pm

Sun Aug 2, 4:05pm

Sun Aug 2, 3:04pm

Sun Aug 2, 2:05pm

Sun Aug 2, 1:04pm

Sun Aug 2, 12:04pm

Sun Aug 2, 11:04am

Sun Aug 2, 10:04am

Sun Aug 2, 9:05am

Sun Aug 2, 8:05am

Sun Aug 2, 7:04am

Sun Aug 2, 6:04am

Sun Aug 2, 5:04am

Sun Aug 2, 4:05am

Sun Aug 2, 3:04am

Sun Aug 2, 2:04am

Sun Aug 2, 1:04am

Sun Aug 2, 12:05am

Sat Aug 1, 11:04pm

Sat Aug 1, 10:04pm

Sat Aug 1, 9:04pm

Sat Aug 1, 8:05pm

Sat Aug 1, 7:04pm

Sat Aug 1, 6:04pm

Sat Aug 1, 5:05pm

Sat Aug 1, 4:05pm

Sat Aug 1, 3:04pm

Sat Aug 1, 2:04pm

Sat Aug 1, 1:04pm

Sat Aug 1, 12:04pm

Sat Aug 1, 11:05am

Sat Aug 1, 10:05am

Sat Aug 1, 9:04am

Sat Aug 1, 8:04am

Sat Aug 1, 7:04am

Sat Aug 1, 6:04am

Sat Aug 1, 5:04am

Sat Aug 1, 4:05am

Sat Aug 1, 3:04am

Sat Aug 1, 2:04am

Sat Aug 1, 1:04am

Sat Aug 1, 12:05am

Fri Jul 31, 11:05pm

Fri Jul 31, 10:04pm

Fri Jul 31, 9:04pm

Fri Jul 31, 8:05pm

Fri Jul 31, 7:05pm

Fri Jul 31, 6:04pm

Fri Jul 31, 5:04pm

Fri Jul 31, 4:05pm

Fri Jul 31, 3:04pm

Fri Jul 31, 2:05pm

Fri Jul 31, 1:04pm

Fri Jul 31, 12:04pm

Fri Jul 31, 11:04am

Fri Jul 31, 10:04am

Fri Jul 31, 9:04am

Fri Jul 31, 8:04am

Fri Jul 31, 7:04am

Fri Jul 31, 6:04am

Fri Jul 31, 5:04am

Fri Jul 31, 4:04am

Fri Jul 31, 3:04am

Fri Jul 31, 2:04am

Fri Jul 31, 1:05am

Fri Jul 31, 12:04am

Thu Jul 30, 11:04pm

Thu Jul 30, 10:04pm

Thu Jul 30, 9:04pm

Thu Jul 30, 8:04pm

Thu Jul 30, 7:05pm

Thu Jul 30, 6:04pm

Thu Jul 30, 5:04pm

Thu Jul 30, 4:05pm

Thu Jul 30, 3:04pm

Thu Jul 30, 2:05pm

Thu Jul 30, 1:04pm

Thu Jul 30, 12:04pm

Thu Jul 30, 11:04am

Thu Jul 30, 10:05am

Thu Jul 30, 9:04am

Thu Jul 30, 8:04am

Thu Jul 30, 7:04am

Thu Jul 30, 5:04am

Thu Jul 30, 4:04am

Thu Jul 30, 3:04am

Thu Jul 30, 2:04am

Thu Jul 30, 1:04am

Thu Jul 30, 12:04am

Wed Jul 29, 11:04pm

Wed Jul 29, 10:04pm

Wed Jul 29, 9:04pm

Wed Jul 29, 8:04pm

Wed Jul 29, 7:05pm

Wed Jul 29, 6:05pm

Wed Jul 29, 5:04pm

Wed Jul 29, 4:04pm

Wed Jul 29, 3:04pm

Wed Jul 29, 2:04pm

Wed Jul 29, 1:05pm

Wed Jul 29, 12:05pm

Wed Jul 29, 11:04am

Wed Jul 29, 10:04am

Wed Jul 29, 9:04am

Wed Jul 29, 8:04am

Wed Jul 29, 7:04am

Wed Jul 29, 6:04am

Wed Jul 29, 5:04am

Wed Jul 29, 4:04am

Wed Jul 29, 3:04am

Wed Jul 29, 2:04am

Wed Jul 29, 1:04am

Wed Jul 29, 12:05am

Tue Jul 28, 11:05pm

Tue Jul 28, 10:05pm

Tue Jul 28, 9:04pm

Tue Jul 28, 8:04pm

Tue Jul 28, 7:04pm

Tue Jul 28, 6:04pm

Tue Jul 28, 5:04pm

Tue Jul 28, 4:05pm

Tue Jul 28, 3:05pm

Tue Jul 28, 2:04pm

Tue Jul 28, 1:05pm

Tue Jul 28, 12:04pm

Tue Jul 28, 11:04am

Tue Jul 28, 10:04am

Tue Jul 28, 9:04am

Tue Jul 28, 8:04am

Tue Jul 28, 7:04am

Tue Jul 28, 6:04am

Tue Jul 28, 5:04am

Tue Jul 28, 4:04am

Tue Jul 28, 3:04am

Tue Jul 28, 2:04am

Tue Jul 28, 1:04am

Tue Jul 28, 12:05am

Mon Jul 27, 11:04pm

Mon Jul 27, 10:05pm

Mon Jul 27, 9:05pm

Mon Jul 27, 8:04pm

Mon Jul 27, 7:04pm

Mon Jul 27, 6:05pm

Mon Jul 27, 5:05pm

Mon Jul 27, 4:04pm

Mon Jul 27, 3:04pm

Mon Jul 27, 2:04pm

Mon Jul 27, 1:04pm

Mon Jul 27, 12:04pm

Mon Jul 27, 11:04am

Mon Jul 27, 10:04am

Mon Jul 27, 9:04am

Mon Jul 27, 8:04am

Meta data:

ID: 44e2ca46-edad-4046-aeac-60c84398c516
Link: https://api.weather.gov/products/44e2ca46-edad-4046-aeac-60c84398c516